| time (UTC) | temp C | wind direction | speed KPH | gust KPH | rain 1hr cm | rain 24hr cm | rain mn cm | humidity % | barometer mb |
| 20260507050100 | 17 | 0 | 0.0 | 4.8 | 0.00 | 0.66 | 0.00 | 94 | 1011.7 |
| 20260507044552 | 17 | 0 | 0.0 | 3.2 | 0.00 | 0.66 | 0.00 | 94 | 1011.4 |
| 20260507043044 | 17 | 211 | 0.0 | 6.4 | 0.00 | 0.66 | 0.00 | 94 | 1012.0 |
| 20260507041545 | 17 | 265 | 0.0 | 6.4 | 0.00 | 0.66 | 0.00 | 93 | 1012.4 |
| 20260507040045 | 17 | 117 | 1.6 | 8.0 | 0.00 | 0.66 | 0.00 | 93 | 1012.7 |
| 20260507034546 | 17 | 199 | 0.0 | 6.4 | 0.00 | 0.66 | 0.66 | 93 | 1012.1 |
| 20260507033049 | 17 | 148 | 0.0 | 4.8 | 0.00 | 0.66 | 0.66 | 93 | 1011.2 |
| 20260507031545 | 17 | 0 | 0.0 | 1.6 | 0.00 | 0.66 | 0.66 | 93 | 1013.9 |
| 20260507030045 | 17 | 0 | 0.0 | 3.2 | 0.00 | 0.66 | 0.66 | 92 | 1014.0 |
| 20260507024546 | 17 | 240 | 0.0 | 1.6 | 0.20 | 0.66 | 0.66 | 92 | 1013.7 |
| 20260507023040 | 17 | 0 | 0.0 | 1.6 | 0.28 | 0.66 | 0.66 | 91 | 1013.4 |
| 20260507021555 | 18 | 0 | 0.0 | 8.0 | 0.28 | 0.66 | 0.66 | 91 | 1013.4 |
| 20260507020048 | 18 | 272 | 1.6 | 4.8 | 0.30 | 0.64 | 0.64 | 90 | 1013.9 |
| 20260507014547 | 18 | 211 | 1.6 | 8.0 | 0.13 | 0.46 | 0.46 | 90 | 1013.2 |
| 20260507013044 | 19 | 234 | 0.0 | 1.6 | 0.08 | 0.38 | 0.38 | 90 | 1012.7 |
| 20260507011545 | 20 | 236 | 1.6 | 14.5 | 0.10 | 0.38 | 0.38 | 89 | 1012.5 |
| 20260507010045 | 20 | 252 | 3.2 | 6.4 | 0.08 | 0.33 | 0.33 | 89 | 1012.5 |
| 20260507004540 | 20 | 233 | 0.0 | 1.6 | 0.08 | 0.33 | 0.33 | 89 | 1012.4 |
| 20260507003049 | 21 | 0 | 0.0 | 1.6 | 0.05 | 0.30 | 0.30 | 87 | 1012.4 |
| 20260507001541 | 21 | 200 | 0.0 | 1.6 | 0.03 | 0.28 | 0.28 | 84 | 1012.4 |
| 20260507000042 | 22 | 0 | 0.0 | 0.0 | 0.00 | 0.25 | 0.25 | 79 | 1011.7 |
| 20260506234550 | 22 | 0 | 0.0 | 0.0 | 0.00 | 0.25 | 0.25 | 78 | 1012.0 |
| 20260506233047 | 23 | 0 | 0.0 | 0.0 | 0.00 | 0.25 | 0.25 | 77 | 1011.9 |
| 20260506231539 | 23 | 0 | 0.0 | 1.6 | 0.00 | 0.25 | 0.25 | 75 | 1011.9 |
| 20260506230046 | 23 | 0 | 0.0 | 1.6 | 0.00 | 0.25 | 0.25 | 73 | 1011.8 |
| 20260506224546 | 23 | 215 | 0.0 | 4.8 | 0.00 | 0.25 | 0.25 | 73 | 1011.9 |
| 20260506223047 | 23 | 207 | 0.0 | 6.4 | 0.00 | 0.25 | 0.25 | 74 | 1012.0 |
| 20260506221551 | 23 | 226 | 3.2 | 8.0 | 0.00 | 0.25 | 0.25 | 73 | 1011.9 |
| 20260506220049 | 23 | 0 | 1.6 | 6.4 | 0.00 | 0.25 | 0.25 | 76 | 1011.8 |
| 20260506214546 | 23 | 186 | 1.6 | 11.3 | 0.00 | 0.25 | 0.25 | 75 | 1011.9 |
| 20260506213050 | 23 | 201 | 3.2 | 11.3 | 0.00 | 0.25 | 0.25 | 75 | 1011.7 |
| 20260506211549 | 23 | 142 | 3.2 | 8.0 | 0.00 | 0.25 | 0.25 | 75 | 1011.8 |
| 20260506210051 | 23 | 188 | 3.2 | 6.4 | 0.00 | 0.25 | 0.25 | 73 | 1011.6 |
| 20260506204556 | 23 | 243 | 3.2 | 17.7 | 0.00 | 0.25 | 0.25 | 74 | 1012.0 |
| 20260506203051 | 23 | 243 | 4.8 | 14.5 | 0.00 | 0.25 | 0.25 | 73 | 1012.4 |
| 20260506201556 | 23 | 290 | 1.6 | 16.1 | 0.00 | 0.25 | 0.25 | 75 | 1012.4 |
| 20260506200107 | 22 | 109 | 8.0 | 17.7 | 0.00 | 0.25 | 0.25 | 76 | 1012.5 |
| 20260506194558 | 21 | 158 | 3.2 | 11.3 | 0.00 | 0.25 | 0.25 | 81 | 1012.4 |
| 20260506193047 | 20 | 231 | 1.6 | 11.3 | 0.00 | 0.25 | 0.25 | 81 | 1012.5 |
| 20260506191545 | 20 | 183 | 1.6 | 12.9 | 0.00 | 0.25 | 0.25 | 84 | 1012.8 |
| 20260506190046 | 19 | 235 | 3.2 | 12.9 | 0.00 | 0.25 | 0.25 | 86 | 1012.5 |
| 20260506184545 | 18 | 94 | 1.6 | 11.3 | 0.00 | 0.25 | 0.25 | 89 | 1012.8 |
| 20260506183102 | 17 | 269 | 1.6 | 11.3 | 0.05 | 0.25 | 0.25 | 90 | 1012.3 |
| 20260506181557 | 17 | 144 | 3.2 | 12.9 | 0.05 | 0.25 | 0.25 | 89 | 1012.4 |
| 20260506180041 | 17 | 140 | 3.2 | 16.1 | 0.25 | 0.25 | 0.25 | 90 | 1014.1 |
| 20260506174547 | 17 | 217 | 1.6 | 9.7 | 0.25 | 0.25 | 0.25 | 89 | 1014.5 |
| 20260506173053 | 17 | 252 | 3.2 | 8.0 | 0.20 | 0.20 | 0.20 | 86 | 1015.1 |
| 20260506171548 | 19 | 175 | 6.4 | 22.5 | 0.20 | 0.20 | 0.20 | 77 | 1015.5 |
| 20260506170050 | 22 | 244 | 6.4 | 24.1 | 0.00 | 0.00 | 0.00 | 62 | 1015.0 |
| 20260506164551 | 23 | 234 | 3.2 | 19.3 | 0.00 | 0.00 | 0.00 | 56 | 1014.1 |
| 20260506163051 | 23 | 229 | 6.4 | 14.5 | 0.00 | 0.00 | 0.00 | 53 | 1014.0 |
| 20260506161551 | 23 | 177 | 3.2 | 17.7 | 0.00 | 0.00 | 0.00 | 57 | 1014.0 |
| 20260506160117 | 23 | 201 | 6.4 | 17.7 | 0.00 | 0.00 | 0.00 | 60 | 1014.1 |
| 20260506154545 | 22 | 283 | 6.4 | 19.3 | 0.00 | 0.00 | 0.00 | 64 | 1013.8 |
| 20260506153051 | 21 | 268 | 6.4 | 14.5 | 0.00 | 0.00 | 0.00 | 68 | 1013.7 |
| 20260506151605 | 21 | 215 | 4.8 | 12.9 | 0.00 | 0.00 | 0.00 | 68 | 1013.9 |
| 20260506150051 | 20 | 227 | 3.2 | 16.1 | 0.00 | 0.00 | 0.00 | 70 | 1014.0 |
| 20260506144552 | 20 | 105 | 6.4 | 17.7 | 0.00 | 0.00 | 0.00 | 71 | 1014.1 |
| 20260506143056 | 20 | 217 | 1.6 | 14.5 | 0.00 | 0.00 | 0.00 | 71 | 1014.1 |
| 20260506141550 | 20 | 225 | 4.8 | 12.9 | 0.00 | 0.00 | 0.00 | 71 | 1014.1 |
| 20260506140106 | 20 | 159 | 3.2 | 9.7 | 0.00 | 0.00 | 0.00 | 71 | 1013.7 |
| 20260506134545 | 20 | 236 | 3.2 | 12.9 | 0.00 | 0.00 | 0.00 | 71 | 1013.8 |
| 20260506133048 | 18 | 279 | 3.2 | 11.3 | 0.00 | 0.00 | 0.00 | 73 | 1013.7 |
| 20260506131552 | 18 | 234 | 3.2 | 11.3 | 0.00 | 0.00 | 0.00 | 74 | 1013.7 |
| 20260506130049 | 18 | 130 | 3.2 | 17.7 | 0.00 | 0.00 | 0.00 | 74 | 1013.3 |
| 20260506124540 | 17 | 161 | 3.2 | 11.3 | 0.00 | 0.00 | 0.00 | 74 | 1014.0 |
| 20260506123039 | 17 | 264 | 3.2 | 11.3 | 0.00 | 0.00 | 0.00 | 74 | 1014.2 |
| 20260506121547 | 17 | 202 | 6.4 | 14.5 | 0.00 | 0.00 | 0.00 | 74 | 1014.6 |
| 20260506120044 | 17 | 279 | 3.2 | 12.9 | 0.00 | 0.00 | 0.00 | 73 | 1014.5 |
| 20260506114550 | 17 | 141 | 1.6 | 4.8 | 0.00 | 0.00 | 0.00 | 74 | 1014.1 |
| 20260506113047 | 16 | 230 | 1.6 | 9.7 | 0.00 | 0.00 | 0.00 | 74 | 1013.9 |
| 20260506111550 | 16 | 209 | 1.6 | 8.0 | 0.00 | 0.00 | 0.00 | 75 | 1013.6 |
| 20260506110056 | 16 | 237 | 1.6 | 8.0 | 0.00 | 0.00 | 0.00 | 75 | 1013.4 |
| 20260506104558 | 16 | 223 | 0.0 | 14.5 | 0.00 | 0.00 | 0.00 | 75 | 1013.3 |
| 20260506103048 | 16 | 196 | 3.2 | 9.7 | 0.00 | 0.00 | 0.00 | 75 | 1012.9 |
| 20260506101556 | 16 | 209 | 1.6 | 4.8 | 0.00 | 0.00 | 0.00 | 75 | 1013.1 |
| 20260506100045 | 16 | 148 | 1.6 | 8.0 | 0.00 | 0.00 | 0.00 | 75 | 1013.0 |
| 20260506094554 | 16 | 277 | 1.6 | 14.5 | 0.00 | 0.00 | 0.00 | 75 | 1013.1 |
| 20260506093050 | 16 | 226 | 1.6 | 12.9 | 0.00 | 0.00 | 0.00 | 74 | 1013.2 |
| 20260506091544 | 16 | 178 | 3.2 | 12.9 | 0.00 | 0.00 | 0.00 | 74 | 1013.3 |
| 20260506090049 | 16 | 294 | 1.6 | 6.4 | 0.00 | 0.00 | 0.00 | 75 | 1013.6 |
| 20260506084547 | 16 | 0 | 1.6 | 4.8 | 0.00 | 0.00 | 0.00 | 74 | 1013.8 |
| 20260506083041 | 16 | 137 | 1.6 | 9.7 | 0.00 | 0.00 | 0.00 | 74 | 1013.9 |
| 20260506081549 | 17 | 210 | 0.0 | 9.7 | 0.00 | 0.00 | 0.00 | 73 | 1013.8 |
| 20260506073050 | 17 | 132 | 1.6 | 9.7 | 0.00 | 0.00 | 0.00 | 72 | 1014.0 |
| 20260506071557 | 17 | 270 | 3.2 | 11.3 | 0.00 | 0.00 | 0.00 | 72 | 1013.7 |
| 20260506061543 | 17 | 236 | 3.2 | 16.1 | 0.00 | 0.00 | 0.00 | 71 | 1014.1 |